Weather Roundup
Issued by NWS Springfield, MO

Home | Current Version | Previous Version | Text Only | Print | Product List | Glossary On
Versions: 1 2 3 4 5 6 7 8 9 10 11 12 13 14 15 16 17 18 19 20 21 22 23 24 25 26 27 28 29 30 31 32 33 34 35 36 37 38 39 40 41 42 43 44 45 46 47 48 49 50
000
NZUS99 KSGF 201107
HRRSGF

HOURLY WEATHER
NATIONAL WEATHER SERVICE SPRINGFIELD MO
600 AM CDT SUN AUG 20 2017

......SGF CWA......

CITY           SKY/WX    TMP DP  RH WIND       PRES   REMARKS
SPRINGFIELD    CLOUDY    75  74  96 S10       29.98F
JOPLIN         CLOUDY    81  75  82 SW13      29.95F
WEST PLAINS    CLOUDY    72  69  90 CALM      30.03F
ROLLA          CLEAR     70  70 100 S9        30.00S
OSAGE BEACH    MOCLDY    71  70  96 CALM      29.98F
BRANSON          N/A     73  73 100 CALM      30.03R

......SURROUNDING SGF CWA......

CITY           SKY/WX    TMP DP  RH WIND       PRES   REMARKS
CHANUTE        PTCLDY    68  65  90 SE7       29.94F
PARSONS        CLEAR     71  68  90 CALM      29.95S
COFFEYVILLE    CLEAR     74  72  93 S3        29.94F
EMPORIA        CLEAR     71  61  70 S5        29.93S
GROVE OK       CLEAR     75  73  94 CALM      29.99R
SILOAM SPRINGS CLEAR     73  70  88 S3        30.01R
HARRISON AR    CLOUDY    74  73  97 SE3       30.03S
NEAR YELLVILLE CLOUDY    75  68  78 CALM      29.98S

......KANSAS AND MISSOURI......

CITY           SKY/WX    TMP DP  RH WIND       PRES   REMARKS
KANSAS CTY INT LGT RAIN  68  67  96 NE9       30.00R
DOWNTOWN KC    TSTM      70  68  93 NE5       30.01R FOG
COLUMBIA       CLOUDY    71  69  93 S5        29.97S
SEDALIA        CLOUDY    76  75  97 S6        29.96S
ST JOSEPH      CLOUDY    68  67  96 S8        29.95F THUNDER
ST LOUIS       MOCLDY    75  70  84 CALM      29.99S
SPIRIT OF STL  CLEAR     68  68 100 CALM      29.98R FOG
KIRKSVILLE     CLOUDY    69  63  81 SE7       29.97R
WICHITA        PTCLDY    73  70  90 S8        29.93F
TOPEKA         TSTM      69  68  96 CALM      29.97F FOG
OLATHE         CLOUDY    74  65  73 N25G33    30.01R

......TENNESSEE......

CITY           SKY/WX    TMP DP  RH WIND       PRES   REMARKS
MEMPHIS        PTCLDY    78  75  90 S3        30.01R
NASHVILLE      PTCLDY    73  70  90 CALM      30.06R

......ARKANSAS.......

CITY           SKY/WX    TMP DP  RH WIND       PRES   REMARKS
FAYETTEVILLE   CLEAR     70  70 100 CALM      30.02R
FT SMITH       CLEAR     76  75  97 E5        29.98R
LITTLE ROCK    PTCLDY    77  77 100 SW5       29.99R

......OKLAHOMA.......

CITY           SKY/WX    TMP DP  RH WIND       PRES   REMARKS
TULSA          CLEAR     79  75  87 S7        29.94S
PONCA CITY     CLEAR     75  68  78 SE7       29.95R
MCALESTER      PTCLDY    78  73  84 CALM      29.99R
OKLAHOMA CITY  PTCLDY    72  69  90 S5        29.97R

......IOWA............

CITY           SKY/WX    TMP DP  RH WIND       PRES   REMARKS
DES MOINES     RAIN      70  67  90 CALM      29.94F FOG
QUAD CITIES    CLOUDY    63  60  90 E5        29.96S

......ILLINOIS........

CITY           SKY/WX    TMP DP  RH WIND       PRES   REMARKS
QUINCY         CLOUDY    67  65  93 SW3       29.98R
CHICAGO        PTCLDY    65  57  75 S3        30.02R



USA.gov is the U.S. government's official web portal to all federal, state and local government web resources and services.